Tracking 18785 objects as of 27-July-2017
HD Live streaming from Space Station
objects crossing your sky now
MAYAK may become the brightest orbital object in the night sky!
Where is MAYAK now?
How to spot MAYAK

GOES 4 AKM

Track GOES 4 AKM now!


NORAD ID: 11970
Int'l Code: 1980-074C
Perigee: 33,761.0 km
Apogee: 50,296.8 km
Inclination: 23.1 °
Period: 1,766.1 minutes
Semi major axis: 48399 km
RCS: 0.003 m2 (small)
Launch date: September 9, 1980
Source: United States (US)
Launch site: AIR FORCE EASTERN TEST RANGE (AFETR)

Note: This is a ROCKET BODY
Your satellite tracking list
Your tracking list is empty





NASA's NSSDC Master Catalog

Two Line Element Set (TLE):
1 11970U 80074C   17207.15475098 -.00000271 +00000-0 +00000-0 0  9994
2 11970 023.1304 341.9189 1708248 191.7469 149.6581 00.81533461109763
Source of the keplerian elements: AFSPC